Regional Weather Roundup
Issued by NWS

Home | Current Version | Previous Version | Text Only | Print | Product List | Glossary Off
Versions: 1 2 3 4 5 6 7 8 9 10 11 12 13 14 15 16 17 18 19 20 21 22 23 24 25 26 27 28 29 30 31 32 33 34 35 36 37 38 39 40 41 42 43 44 45 46 47 48 49 50

000
ASUS43 KFSD 131110
RWRSD

WEATHER ROUNDUP FOR SOUTH DAKOTA
NATIONAL WEATHER SERVICE SIOUX FALLS SD
500 AM CST SAT FEB 13 2016

NOTE: "FAIR" INDICATES FEW OR NO CLOUDS BELOW 12,000 FEET WITH NO
SIGNIFICANT WEATHER AND/OR OBSTRUCTIONS TO VISIBILITY.


SDZ001>005-009-010-012>017-131200-
NORTHWEST AND NORTH CENTRAL SOUTH DAKOTA

CITY           SKY/WX    TMP DP  RH WIND       PRES   REMARKS
BUFFALO          N/A     19  16  88 SE15      30.02F WCI   5
FAITH            N/A     13   8  81 SE23G30   30.16F WCI  -6
MOBRIDGE       FLURRIES   7  -1  70 SE20      30.32F WCI -13
$$

SDZ012>016-024>037-041>051-057-063-072>074-131200-
SOUTHWEST AND SOUTH CENTRAL SOUTH DAKOTA

CITY           SKY/WX    TMP DP  RH WIND       PRES   REMARKS
RAPID CTY ARPT CLOUDY    28  25  88 SE13      30.07F WCI  17
PIERRE         CLOUDY    12   6  77 SE15      30.34F WCI  -4
CUSTER         CLOUDY    27  24  89 W12       30.02F WCI  17
ELLSWORTH AFB  CLOUDY    28  27  94 SE12      30.06F WCI  18
PHILIP         CLOUDY    23  18  81 SE18      30.21F WCI   9
PINE RIDGE     CLOUDY    33  29  85 S14G21    30.11F WCI  23
SPEARFISH      CLOUDY    23  23 100 CALM      30.03F
WINNER         CLOUDY    18  11  74 SE21      30.35F WCI   1
$$

SDZ004>011-016>023-039-040-131200-
NORTHEAST SOUTH DAKOTA

CITY           SKY/WX    TMP DP  RH WIND       PRES   REMARKS
ABERDEEN       CLOUDY     3  -6  66 SE9       30.51F WCI -12
WATERTOWN      CLOUDY    -3 -11  68 SE5       30.49F WCI -13
BROOKINGS      CLOUDY    -4 -11  72 E3        30.52F
SISSETON         N/A     -5 -11  75 S6        30.57F WCI -18
$$

SDZ017-020-022-023-036>040-048>070-131200-
SOUTHEAST SOUTH DAKOTA

CITY           SKY/WX    TMP DP  RH WIND       PRES   REMARKS
SIOUX FALLS    CLOUDY     0  -8  69 E7        30.55F WCI -13
HURON          CLOUDY     4  -5  66 SE10      30.51F WCI -11
CHAMBERLAIN    CLOUDY    10   6  81 SE15G21   30.43F WCI  -6
MITCHELL       CLOUDY     8  -1  66 S14       30.54F WCI  -8
YANKTON        CLOUDY     7  -2  66 E7        30.59R WCI  -5
$$

ABBREVIATIONS USED IN REMARKS
   TC - TEMPERATURE IN CELSIUS
  WCI - WIND CHILL INDEX
   HX - HEAT INDEX
  VSB - VISIBILITY




USA.gov is the U.S. government's official web portal to all federal, state and local government web resources and services.